Weather in Belokurikha

Russia / Altai Krai     51˚59′45″N   84˚59′02″E
temp.,
°C
wind,
m/s
gust,
m/s
humid.,
%
clouds,
%
prec.,
mm/h
press.,
hPa
HPBL,
m
30 november, mon
mon3001:00−7˚s118998 0.0 104321
04:00−7˚sse1189100 0.0 104421
07:00−8˚ese1193100 0.1 104521
10:00−7˚ese119299 0.1 104624
13:00−5˚ene238596 0.1 1046302
16:00−6˚ene228776 0.0 104655
19:00−9˚ese128947 0.0 104821
22:00−10˚ese11870 0.0 104921
1 december, tue
tue101:00−10˚ese11880 0.0 104921
04:00−11˚sse11880 0.0 105021
07:00−11˚sse11870 0.0 105021
10:00−11˚s11850 0.0 105022
13:00−7˚nne11777 0.0 1049139
16:00−9˚nne119065 0.0 104848
19:00−12˚se019241 0.0 104921
22:00−12˚sw01900 0.0 104921
2 december, wed
wed201:00−13˚se00900 0.0 104921
04:00−13˚ene00910 0.0 104821
07:00−14˚ne009023 0.0 104820
10:00−13˚ese018740 0.0 104720
13:00−10˚nne117963 0.0 1045108
16:00−12˚nne119394 0.0 104446
19:00−14˚e119167 0.0 104420
22:00−15˚ese11890 0.0 104320
3 december, thu
thu301:00−15˚e11880 0.0 104220
04:00−14˚se01860 0.0 104120
07:00−15˚ne01880 0.0 104120
10:00−14˚ese01810 0.0 104120
13:00−10˚nne11730 0.0 103890
16:00−12˚nne11860 0.0 103832
19:00−15˚ese11880 0.0 103920
22:00−14˚e01850 0.0 103820
4 december, fri
fri401:00−14˚ese01850 0.0 103720
04:00−14˚sse01830 0.0 103620
07:00−15˚s01800 0.0 103620
10:00−14˚sse01770 0.0 103620
13:00−10˚n11710 0.0 103482
16:00−12˚n01840 0.0 103430
19:00−14˚ssw11850 0.0 103520
22:00−13˚w018285 0.0 103520